User: anonymous   Login
Location: Newark
(44.4156°N, 12.1972°E)
Time: 17:26:32
(UTC+00:00)
Language:

STARLINK-1122 - Orbit

View from above orbital plane
View from above orbital plane
View from above satellite
View from above satellite

Ground track
Ground track

The orbit data is extracted from the following two-line orbital elements,

1 44949C 20001AM  20100.53421742 -.00021266  00000-0 -14560-2 0  1005
2 44949  53.0008 303.9301 0001845  85.1609 192.5106 15.05615145    12
Epoch (UTC): 09 April 2020 12:49:16
Eccentricity: 0.0001845
inclination: 53.0008°
perigee height: 548 km
apogee height: 551 km
right ascension of ascending node: 303.9301°
argument of perigee: 85.1609°
revolutions per day: 15.05615145
mean anomaly at epoch: 192.5106°
orbit number at epoch: 1

The dashed part of the orbit path shows where the satellite is in the earth's shadow,  

DLR